This demonstration page uses our WeatherBlox Daily Observations layout. Learn more.

Left ArrowRight Arrow

30.21309, -93.2044

Hourly Observations for August 12, 2022

Temp ( °F °C ) Dew Point ( °F °C ) Humidity (%) Winds ( mph kmh ) Pressure ( in mb ) Visibility ( mi km ) Precip ( " mm )
12:15 am 00:15 Clear 76 24.2 74 23.2 94 94 Calm 30.00 1016 10 16 0.00 0.00
12:35 am 00:35 Clear 75 24 74 23.1 95 95 E 3 6 30.00 1016 10 16 0.00 0.00
12:55 am 00:55 Clear 76 24.2 74 23.3 95 95 Calm 29.99 1016 10 16 0.00 0.00
1:15 am 01:15 Clear 76 24.2 74 23.1 94 94 NE 3 6 29.99 1016 10 16 0.00 0.00
1:35 am 01:35 Clear 76 24.3 74 23.2 94 94 Calm 29.98 1015 10 16 0.00 0.00
1:55 am 01:55 Clear 76 24.2 74 23.1 94 94 ENE 5 7 29.98 1015 10 16 0.01 0.25
2:15 am 02:15 Clear 75 24.1 73 23 94 94 Calm 29.98 1015 10 16 0.00 0.00
2:35 am 02:35 Clear 75 23.9 73 22.9 94 94 NNE 5 7 29.97 1015 7 11 0.00 0.00
2:55 am 02:55 Clear 75 23.9 73 22.9 94 94 NNE 5 7 29.97 1015 10 16 0.00 0.00
3:15 am 03:15 Clear 75 23.7 73 22.7 94 94 NNE 3 6 29.97 1015 7 11 0.00 0.00
3:35 am 03:35 Clear 75 23.9 73 22.9 94 94 NE 3 6 29.96 1015 10 16 0.00 0.00
3:55 am 03:55 Clear 75 23.8 73 22.8 94 94 NE 3 6 29.96 1015 10 16 0.00 0.00
4:15 am 04:15 Clear 75 23.8 73 22.8 94 94 ENE 3 6 29.96 1015 10 16 0.00 0.00
4:35 am 04:35 Clear 75 23.8 73 22.8 94 94 NE 5 7 29.97 1015 7 11 0.00 0.00
4:55 am 04:55 Clear with Mist and Fog 74 23.6 73 22.7 95 95 NE 3 6 29.96 1015 7 11 0.00 0.00
5:15 am 05:15 Clear 75 23.7 73 22.7 94 94 NE 3 6 29.97 1015 7 11 0.00 0.00
5:35 am 05:35 Clear 74 23.6 73 22.6 94 94 NE 7 11 29.97 1015 10 16 0.00 0.00
6:00 am 06:00 Mostly Clear 73 23 72 22 94 94 NNE 6 9 29.98 1015 10 16 0.00 0.00
6:53 am 06:53 Mostly Sunny 73 23 72 22 94 94 NNE 6 9 29.99 1016 10 16 0.00 0.00
7:55 am 07:55 Partly Cloudy 75 24 73 23 94 94 NE 7 11 29.99 1016 10 16 0.00 0.00
8:28 am 08:28 Mostly Cloudy 77 25 73 23 89 89 E 7 11 30.00 1016 10 16 0.00 0.00
8:58 am 08:58 Mostly Cloudy 77 25 73 23 89 89 ENE 7 11 30.00 1016 10 16 0.00 0.00
9:56 am 09:56 Cloudy 79 26 73 23 84 84 ENE 5 7 30.01 1016 10 16 0.00 0.00
10:15 am 10:15 Mostly Cloudy 81 27 73 23 79 79 E 8 13 30.01 1016 10 16 0.00 0.00
11:03 am 11:03 Mostly Cloudy 82 28 75 24 79 79 ENE 7 11 30.01 1016 10 16 0.00 0.00
11:46 am 11:46 Mostly Cloudy 84 29 73 23 70 70 ENE 8 13 30.00 1016 10 16 0.00 0.00
12:51 pm 12:51 Mostly Cloudy 86 30 73 23 66 66 NNE 9 15 29.99 1016 10 16 0.00 0.00
1:49 pm 13:49 Mostly Cloudy 88 31 72 22 59 59 NE 9 15 29.98 1015 10 16 0.00 0.00
2:45 pm 14:45 Mostly Cloudy 90 32 72 22 56 56 ENE 15 24 29.95 1014 10 16 0.00 0.00
3:45 pm 15:45 Partly Cloudy 90 32 72 22 56 56 ENE 14 22 29.94 1014 10 16 0.00 0.00
4:47 pm 16:47 Mostly Cloudy 90 32 72 22 56 56 ENE 14 22 29.93 1013 10 16 0.00 0.00
5:46 pm 17:46 Mostly Cloudy with Thunderstorms 84 29 75 24 74 74 E 16 26 29.94 1014 7 11 0.00 0.00
6:45 pm 18:45 Partly Cloudy 81 27 73 23 79 79 ESE 15 24 29.93 1013 10 16 0.00 0.00
7:45 pm 19:45 Mostly Cloudy 81 27 75 24 84 84 ESE 6 9 29.94 1014 10 16 0.00 0.00
8:45 pm 20:45 Mostly Cloudy 81 27 75 24 84 84 Calm 29.95 1014 10 16 0.00 0.00
9:49 pm 21:49 Partly Cloudy 79 26 75 24 89 89 Calm 29.97 1015 10 16 0.00 0.00
10:15 pm 22:15 Partly Cloudy 79 25.9 75 23.8 88 88 ENE 5 7 29.98 1015 10 16 0.00 0.00
10:35 pm 22:35 Clear 78 25.7 75 23.8 89 89 Calm 29.98 1015 10 16 0.00 0.00
10:55 pm 22:55 Clear 78 25.5 75 23.9 91 91 ENE 3 6 29.97 1015 10 16 0.00 0.00
11:15 pm 23:15 Clear 78 25.4 75 23.8 91 91 NNE 5 7 29.97 1015 10 16 0.00 0.00
11:35 pm 23:35 Clear 77 25.2 75 23.8 92 92 N 3 6 29.96 1015 10 16 0.00 0.00
11:55 pm 23:55 Clear 77 25 75 23.8 93 93 NE 5 7 29.96 1015 10 16 0.00 0.00

Powered by AerisWeather